sat.trackr.live / text

‹ back to catalog

STARLINK-35009

NORAD 65449 · 2025-194R

PAYLOAD ACTIVE UNKNOWN

§ Identity

Operator
Country
US
Launch date
2025-09-03
Launch site
AFWTR
Launch vehicle
Mass (kg)
RCS (m²)

Purposes: comms

External: N2YO · Heavens-Above · Gunter

§ Orbital elements

Epoch: 2026-09-20T11:53:14.616384Z

Period
93.91 min
Inclination
97.2846°
Eccentricity
0.0003114
Mean motion
15.33461557 rev/d
Perigee alt
463.4 km
Apogee alt
467.6 km
Semi-major
6,843.6 km
B*
4.6406e-4
RAAN
113.0929°
Arg perigee
85.8375°
Mean anomaly
274.3223°
Rev number
5,906

§ Raw data

STARLINK-350091 65449U 25194R   26263.49530806  .00014946  00000+0  46406-3 0  99992 65449  97.2846 113.0929 0003114  85.8375 274.3223 15.33461557 59069

JSON: /api/v1/satellites/65449 · /tle

For live sub-satellite position, see the globe view (requires WebGL).

§ Visibility from observer

Set your observer location to see the next 7 days of passes ≥ 10°. The values pass through the URL so the page stays shareable.

No JS? Fill the form by hand. The geolocation button needs JavaScript.